Home > Weather > Buffalo > Past weeks

Flag for USA Weather for the Past 2 Weeks in Buffalo, New York, USA

Now
44 °F

Fog.


Feels Like: 40 °F
Forecast: 44 / 52 °F
Wind: 8 mph from Northeast

Location: Greater Buffalo International Airport

Current Time: May 2, 2016 at 2:19:42 AM

Latest Report: May 2, 2016 at 1:54 AM


Visibility: 6 mi

Pressure: 29.99 "Hg

Humidity: 96%

Dew Point: 43 °F

Location of BuffaloLocation

Historic Weather in Buffalo — Graph

°F

Buffalo Temperature Yesterday

Maximum temperature yesterday: 55 °F (at 3:54 PM)
Minimum temperature yesterday: 45 °F (at 7:54 PM)
Average temperature yesterday: 50 °F

High & Low Weather Summary for the Past Weeks

 TemperatureHumidityPressure
High74 °F (Apr 17, 3:54 PM)97% (May 1, 7:54 PM)30.47 "Hg (May 1, 7:54 PM)
Low31 °F (Apr 27, 5:54 AM)18% (Apr 20, 1:54 PM)29.66 "Hg (Apr 26, 5:54 AM)
Average50 °F55%30.09 "Hg
* Reported Apr 16 11:54 PM — May 1 11:54 PM, Buffalo, Weather by CustomWeather, © 2016

Note: Actual official high and low records may vary slightly from our data, if they occured in-between our weather recording intervals... More about our weather records

Advertising

Buffalo Weather History for the Previous 24 Hours

Scroll right to see more
 ConditionsComfort  
Time TempWeatherWind HumidityBarometerVisibility
11:54 PM
Sun, May 1
45 °FLow clouds.9 mph90%30.01 "Hg10 mi
10:54 PM45 °FLow clouds.6 mph93%30.03 "Hg9 mi
9:54 PM45 °FLow clouds.7 mph93%30.03 "Hg10 mi
8:54 PM45 °FLow clouds.10 mph93%30.02 "Hg10 mi
7:54 PM45 °FFog.8 mph97%29.99 "Hg2 mi
6:54 PM49 °FFog.10 mph93%29.96 "Hg1 mi
6:03 PM50 °FFog.9 mph96%29.95 "Hg1 mi
4:54 PM54 °FMostly cloudy.7 mph90%29.93 "Hg10 mi
3:54 PM55 °FMostly cloudy.3 mph83%29.92 "Hg2 mi
2:54 PM54 °FDrizzle. Fog.5 mph90%29.92 "Hg2 mi
1:54 PM54 °FDrizzle. Fog.6 mph93%29.92 "Hg2 mi
12:54 PM54 °FDrizzle. Fog.No wind90%29.91 "Hg4 mi
11:54 AM53 °FDrizzle. Fog.No wind93%29.92 "Hg3 mi
11:01 AM52 °FDrizzle. Fog.9 mph93%29.92 "Hg2 mi
9:54 AM51 °FLight rain. More clouds than sun.9 mph92%29.94 "Hg8 mi
8:54 AM50 °FLight rain. Fog.7 mph89%29.95 "Hg2 mi
7:54 AM49 °FLight rain. Mostly cloudy.10 mph90%29.94 "Hg8 mi
6:54 AM49 °FLight rain. Fog.10 mph90%29.95 "Hg5 mi
5:54 AM48 °FLight rain. Fog.10 mph93%29.96 "Hg6 mi
4:54 AM49 °FRain. Fog.12 mph90%29.99 "Hg5 mi
3:54 AM49 °FLight rain. Fog.9 mph90%30.00 "Hg6 mi
2:54 AM50 °FLight rain. Mostly cloudy.7 mph86%30.02 "Hg7 mi
Weather by CustomWeather, © 2016

See weather overviewHow to use our weather pages